KE2BQW Weather Reports


Display with metric or nautical units.
time (UTC)temp
F
wind
direction
speed
MPH
gust
MPH
rain 1hr
in
rain 24hr
in
rain mn
in
humidity
%
barometer
mb
20260906205519 69 0.0 0.0 0.00 0.00 0.00 67 1019.8
20260906204518 69 0.0 0.0 0.00 0.00 0.00 66 1019.7
20260906203542 70 0.0 0.0 0.00 0.00 0.00 65 1019.6
20260906202519 69 0.0 0.0 0.00 0.00 0.00 66 1019.6
20260906201519 69 0.0 0.0 0.00 0.00 0.00 65 1019.6
20260906200520 70 0.0 0.0 0.00 0.00 0.00 66 1019.6
20260906195542 70 0.0 0.0 0.00 0.00 0.00 66 1019.6
20260906194542 70 0.0 0.0 0.00 0.00 0.00 68 1019.7
20260906193520 70 0.0 0.0 0.00 0.00 0.00 68 1019.6
20260906192520 70 0.0 0.0 0.00 0.00 0.00 68 1019.6
20260906191542 70 0.0 0.0 0.00 0.00 0.00 68 1019.6
20260906190519 70 0.0 0.0 0.00 0.00 0.00 69 1019.5
20260906185519 70 0.0 0.0 0.00 0.00 0.00 69 1019.5
20260906184519 70 0.0 0.0 0.00 0.00 0.00 68 1019.5
20260906183520 71 0.0 0.0 0.00 0.00 0.00 69 1019.6
20260906182543 70 0.0 0.0 0.00 0.00 0.00 70 1019.6
20260906181544 70 0.0 0.0 0.00 0.00 0.00 71 1019.6
20260906180519 70 0.0 0.0 0.00 0.00 0.00 71 1019.5
20260906175519 70 0.0 0.0 0.00 0.00 0.00 73 1019.5
20260906174520 69 0.0 0.0 0.00 0.00 0.00 74 1019.7
20260906173520 69 0.0 0.0 0.00 0.00 0.00 72 1019.7
20260906172519 70 0.0 0.0 0.00 0.00 0.00 73 1019.7
20260906171518 69 0.0 0.0 0.00 0.00 0.00 74 1019.6
20260906170520 70 0.0 0.0 0.00 0.00 0.00 72 1019.6
20260906165519 70 0.0 0.0 0.00 0.00 0.00 72 1019.6
20260906164519 71 0.0 0.0 0.00 0.00 0.00 69 1019.5
20260906163520 72 0.0 0.0 0.00 0.00 0.00 71 1019.5
20260906162519 71 0.0 0.0 0.00 0.00 0.00 74 1019.5
20260906161546 70 0.0 0.0 0.00 0.00 0.00 75 1019.6
20260906160520 69 0.0 0.0 0.00 0.00 0.00 75 1019.6
20260906155519 70 0.0 0.0 0.00 0.00 0.00 75 1019.6
20260906154523 71 0.0 0.0 0.00 0.00 0.00 75 1019.6
20260906153519 71 0.0 0.0 0.00 0.00 0.00 76 1019.3
20260906152523 71 0.0 0.0 0.00 0.00 0.00 77 1019.3
20260906151520 71 0.0 0.0 0.00 0.00 0.00 80 1019.3
20260906150518 71 0.0 0.0 0.00 0.00 0.00 84 1019.3
20260906145519 69 0.0 0.0 0.00 0.00 0.00 85 1019.3
20260906144519 68 0.0 0.0 0.00 0.00 0.00 86 1019.4
20260906143520 68 0.0 0.0 0.00 0.00 0.00 86 1019.4
20260906142520 69 0.0 0.0 0.00 0.00 0.00 86 1019.4
20260906141520 69 0.0 0.0 0.00 0.00 0.00 87 1019.2
20260906140520 69 0.0 0.0 0.00 0.00 0.00 88 1019.0
20260906135519 70 0.0 0.0 0.00 0.00 0.00 93 1018.8
20260906134519 68 0.0 0.0 0.00 0.00 0.00 94 1018.9
20260906133519 67 0.0 0.0 0.00 0.00 0.00 94 1018.9
20260906132519 67 0.0 0.0 0.00 0.00 0.00 96 1018.9
20260906131542 68 0.0 0.0 0.00 0.00 0.00 98 1018.7
20260906130519 68 0.0 0.0 0.00 0.00 0.00 100 1018.8
20260906125518 68 0.0 0.0 0.00 0.00 0.00 1018.7
20260906124520 68 0.0 0.0 0.00 0.00 0.00 1018.6
20260906123519 68 0.0 0.0 0.00 0.00 0.00 1018.6
20260906122519 68 0.0 0.0 0.00 0.00 0.00 1018.5
20260906121520 67 0.0 0.0 0.00 0.00 0.00 1018.5
20260906120543 66 0.0 0.0 0.00 0.00 0.00 1018.4
20260906115520 64 0.0 0.0 0.00 0.00 0.00 1018.2
20260906114542 63 0.0 0.0 0.00 0.00 0.00 1018.0
20260906113520 62 0.0 0.0 0.00 0.00 0.00 1018.0
20260906112519 61 0.0 0.0 0.00 0.00 0.00 1018.0
20260906111520 61 0.0 0.0 0.00 0.00 0.00 1017.8
20260906110519 61 0.0 0.0 0.00 0.00 0.00 1017.7
20260906105518 61 0.0 0.0 0.00 0.00 0.00 1017.6
20260906104518 61 0.0 0.0 0.00 0.00 0.00 1017.6
20260906103519 61 0.0 0.0 0.00 0.00 0.00 1017.5
20260906102518 61 0.0 0.0 0.00 0.00 0.00 1017.3
20260906101542 61 0.0 0.0 0.00 0.00 0.00 1017.2
20260906100543 61 0.0 0.0 0.00 0.00 0.00 1017.1
20260906095520 61 0.0 0.0 0.00 0.00 0.00 1016.9
20260906094604 61 0.0 0.0 0.00 0.00 0.00 1016.9
20260906093520 61 0.0 0.0 0.00 0.00 0.00 1016.8
20260906092520 61 0.0 0.0 0.00 0.00 0.00 1016.8
20260906091520 61 0.0 0.0 0.00 0.00 0.00 1016.6
20260906090522 61 0.0 0.0 0.00 0.00 0.00 1016.5
20260906085543 61 0.0 0.0 0.00 0.00 0.00 1016.3
20260906084520 61 0.0 0.0 0.00 0.00 0.00 1016.2
20260906083519 61 0.0 0.0 0.00 0.00 0.00 1016.1
20260906082520 62 0.0 0.0 0.00 0.00 0.00 1016.1
20260906081519 62 0.0 0.0 0.00 0.00 0.00 1016.1
20260906080520 62 0.0 0.0 0.00 0.00 0.00 1016.0
20260906075519 62 0.0 0.0 0.00 0.00 0.00 1016.1
20260906074605 62 0.0 0.0 0.00 0.00 0.00 1016.0
20260906073521 63 0.0 0.0 0.00 0.00 0.00 1015.8
20260906072520 63 0.0 0.0 0.00 0.00 0.00 1015.8
20260906071519 63 0.0 0.0 0.00 0.00 0.00 1015.9
20260906070542 64 0.0 0.0 0.00 0.00 0.00 1015.9
20260906065518 64 0.0 0.0 0.00 0.00 0.00 1015.9
20260906064520 64 0.0 0.0 0.00 0.00 0.00 100 1015.9
20260906063519 64 0.0 0.0 0.00 0.00 0.00 100 1016.0
20260906062518 64 0.0 0.0 0.00 0.00 0.00 100 1015.9
20260906061519 64 0.0 0.0 0.00 0.00 0.00 99 1015.9
20260906060519 64 0.0 0.0 0.00 0.00 0.00 98 1015.9
20260906055519 64 0.0 0.0 0.00 0.00 0.00 98 1015.9
20260906054520 64 0.0 0.0 0.00 0.00 0.00 98 1016.0
20260906053519 64 0.0 0.0 0.00 0.00 0.00 98 1016.0
20260906052519 65 0.0 0.0 0.00 0.00 0.00 98 1015.9
20260906051519 64 0.0 0.0 0.00 0.00 0.00 98 1015.9
20260906050520 64 0.0 0.0 0.00 0.00 0.00 97 1016.0
20260906045519 64 0.0 0.0 0.00 0.00 0.00 96 1015.9
20260906044519 64 0.0 0.0 0.00 0.00 0.00 95 1015.8
20260906043520 64 0.0 0.0 0.00 0.00 0.00 95 1015.8
20260906042520 64 0.0 0.0 0.00 0.00 0.00 94 1015.8
20260906041518 64 0.0 0.0 0.00 0.00 0.00 94 1015.8
20260906040520 64 0.0 0.0 0.00 0.00 0.00 93 1015.7
20260906035518 64 0.0 0.0 0.00 0.00 0.00 92 1015.8
20260906034520 64 0.0 0.0 0.00 0.00 0.00 91 1015.6
20260906033520 64 0.0 0.0 0.00 0.00 0.00 90 1015.6
20260906032543 65 0.0 0.0 0.00 0.00 0.00 90 1015.6
20260906031519 65 0.0 0.0 0.00 0.00 0.00 89 1015.6
20260906030520 65 0.0 0.0 0.00 0.00 0.00 88 1015.5
20260906025520 65 0.0 0.0 0.00 0.00 0.00 88 1015.5
20260906024543 66 0.0 0.0 0.00 0.00 0.00 87 1015.4
20260906023521 66 0.0 0.0 0.00 0.00 0.00 86 1015.4
20260906022519 66 0.0 0.0 0.00 0.00 0.00 86 1015.4
20260906021519 66 0.0 0.0 0.00 0.00 0.00 85 1015.3
20260906020521 66 0.0 0.0 0.00 0.00 0.00 84 1015.2
20260906015520 66 0.0 0.0 0.00 0.00 0.00 84 1015.3
20260906014519 67 0.0 0.0 0.00 0.00 0.00 83 1015.2
20260906013520 67 0.0 0.0 0.00 0.00 0.00 82 1015.1
20260906012543 67 0.0 0.0 0.00 0.00 0.00 82 1015.1
20260906011520 68 0.0 0.0 0.00 0.00 0.00 81 1015.2
20260906010518 68 0.0 0.0 0.00 0.00 0.00 81 1015.2
20260906005521 68 0.0 0.0 0.00 0.00 0.00 81 1015.1
20260906004521 68 0.0 0.0 0.00 0.00 0.00 80 1015.0
20260906003520 68 0.0 0.0 0.00 0.00 0.00 80 1014.9
20260906002519 69 0.0 0.0 0.00 0.00 0.00 79 1014.8
20260906001521 69 0.0 0.0 0.00 0.00 0.00 78 1015.0
20260906000519 69 0.0 0.0 0.00 0.00 0.00 77 1015.0
20260905235520 69 0.0 0.0 0.00 0.00 0.00 77 1015.0
20260905234519 69 0.0 0.0 0.00 0.00 0.00 76 1015.0
20260905233520 70 0.0 0.0 0.00 0.00 0.00 76 1014.9
20260905232520 70 0.0 0.0 0.00 0.00 0.00 76 1015.1
20260905231518 70 0.0 0.0 0.00 0.00 0.00 75 1015.1
20260905230519 71 0.0 0.0 0.00 0.00 0.00 75 1015.0
20260905225543 71 0.0 0.0 0.00 0.00 0.00 75 1015.1
20260905224518 71 0.0 0.0 0.00 0.00 0.00 74 1015.1
20260905223519 71 0.0 0.0 0.00 0.00 0.00 74 1015.2
20260905222543 71 0.0 0.0 0.00 0.00 0.00 74 1015.0
20260905221521 72 0.0 0.0 0.00 0.00 0.00 74 1014.9
20260905220518 72 0.0 0.0 0.00 0.00 0.00 73 1014.8
20260905215543 72 0.0 0.0 0.00 0.00 0.00 72 1014.8
20260905214519 72 0.0 0.0 0.00 0.00 0.00 72 1014.7
20260905213520 72 0.0 0.0 0.00 0.00 0.00 72 1014.6
20260905212519 72 0.0 0.0 0.00 0.00 0.00 71 1014.6
20260905211518 72 0.0 0.0 0.00 0.00 0.00 72 1014.5
20260905210519 72 0.0 0.0 0.00 0.00 0.00 70 1014.4